Weather History for Salisbury, MD

Change the Weather History Date:

Tuesday, March 19, 2013

  Actual Average Record
Temperature  
Mean Temperature 48 °F 46 °F  
Max Temperature 59 °F 56 °F 79 °F (1945)
Min Temperature 36 °F 35 °F 10 °F (1967)
Degree Days  
Heating Degree Days 17 19  
Month to date heating degree days 418 420  
Since 1 July heating degree days 3196 3725  
Cooling Degree Days 0 0  
Month to date cooling degree days 0 0  
Year to date cooling degree days 0 0  
Moisture  
Dew Point 39 °F    
Average Humidity 66    
Maximum Humidity 89    
Minimum Humidity 43    
Precipitation  
Precipitation 0.06 in 0.15 in 2.08 in (1975)
Month to date precipitation 4.00 2.65  
Year to date precipitation 10.70 9.61  
Snow  
Snow 0.00 in 0.00 in 0.50 in (1944)
Month to date snowfall T 0.7  
Since 1 July snowfall 2.8 9.0  
Snow Depth 0.00 in    
Sea Level Pressure  
Sea Level Pressure 29.80 in    
Wind  
Wind Speed 7 mph (West)    
Max Wind Speed 16 mph    
Max Gust Speed 22 mph    
Visibility 9 miles    
Events Rain    
T = Trace of Precipitation, MM = Missing Value Source: NWS Daily Summary

Daily Weather History Graph

Daily Weather History Graph

Search for Another Location

Airport:

Trip Planner

Search our weather history database for the weather conditions in past years. The results will help you decide how hot, cold, wet, or windy it might be!

Date:

Astronomy

Mar. 19, 2013 Rise Set
Actual Time 7:06 AM EDT 7:13 PM EDT
Civil Twilight 6:40 AM EDT 7:39 PM EDT
Nautical Twilight 6:09 AM EDT 8:10 PM EDT
Astronomical Twilight 5:38 AM EDT 8:41 PM EDT
Moon 11:59 AM EDT (3/19) 1:53 AM EDT (3/19)
Length of Visible Light 12h 59m
Length of Day
12h 06m
Waxing Crescent, 49% of the Moon is Illuminated
Mar 19
Waxing Crescent
Mar 19
First Quarter
Mar 27
Full
Apr 3
Last Quarter
Apr 10
New

Hourly Weather History & Observations

Time (EDT) Temp. Windchill Dew Point Humidity Pressure Visibility Wind Dir Wind Speed Gust Speed Precip Events Conditions
12:25 AM 48.2 °F - 46.4 °F 93% 29.84 in 1.5 mi West 5.8 mph - 0.02 in Rain Light Rain
12:33 AM 48.2 °F - 46.4 °F 93% 29.83 in 3.0 mi West 5.8 mph - 0.03 in Rain Light Rain
12:54 AM 48.0 °F - 45.0 °F 89% 29.83 in 8.0 mi West 6.9 mph - 0.03 in Rain Light Rain
1:54 AM 46.0 °F 41.9 °F 43.0 °F 89% 29.83 in 10.0 mi West 8.1 mph - 0.01 in Rain Light Rain
2:54 AM 44.1 °F 40.8 °F 41.0 °F 89% 29.82 in 4.0 mi West 5.8 mph - 0.04 in Rain Light Rain
3:25 AM 44.6 °F 41.4 °F 39.2 °F 81% 29.81 in 10.0 mi West 5.8 mph - 0.00 in   Overcast
3:54 AM 43.0 °F 40.3 °F 39.9 °F 89% 29.81 in 10.0 mi West 4.6 mph - 0.00 in   Overcast
4:54 AM 43.0 °F - 39.9 °F 89% 29.79 in 10.0 mi Calm Calm - 0.01 in   Overcast
5:54 AM 43.0 °F 41.3 °F 39.9 °F 89% 29.79 in 10.0 mi SW 3.5 mph - N/A   Overcast
6:31 AM 42.8 °F - 39.2 °F 87% 29.77 in 10.0 mi Calm Calm - N/A   Overcast
6:54 AM 43.0 °F 40.3 °F 39.9 °F 89% 29.78 in 10.0 mi South 4.6 mph - N/A   Overcast
7:04 AM 44.6 °F - 39.2 °F 81% 29.77 in 8.0 mi Calm Calm - N/A   Mostly Cloudy
7:54 AM 44.1 °F 41.5 °F 39.9 °F 85% 29.78 in 6.0 mi SW 4.6 mph - N/A   Mostly Cloudy
8:01 AM 44.6 °F - 39.2 °F 81% 29.77 in 6.0 mi Calm Calm - N/A   Overcast
8:54 AM 45.0 °F 41.2 °F 41.0 °F 86% 29.77 in 6.0 mi West 6.9 mph - N/A   Overcast
9:01 AM 44.6 °F 40.2 °F 39.2 °F 81% 29.77 in 7.0 mi West 8.1 mph - N/A   Overcast
9:54 AM 44.1 °F 37.7 °F 39.0 °F 82% 29.81 in 10.0 mi West 12.7 mph 18.4 mph N/A   Overcast
10:34 AM 44.6 °F 40.2 °F 39.2 °F 81% 29.79 in 10.0 mi West 8.1 mph - N/A   Overcast
10:54 AM 45.0 °F 41.8 °F 39.9 °F 82% 29.79 in 10.0 mi WNW 5.8 mph - N/A   Mostly Cloudy
11:03 AM 46.4 °F 42.9 °F 39.2 °F 76% 29.78 in 10.0 mi WNW 6.9 mph - N/A   Scattered Clouds
11:54 AM 48.9 °F - 39.9 °F 71% 29.80 in 10.0 mi WNW 12.7 mph - N/A   Mostly Cloudy
12:54 PM 52.0 °F - 39.9 °F 63% 29.80 in 10.0 mi WNW 15.0 mph 20.7 mph N/A   Clear
1:54 PM 54.0 °F - 39.0 °F 57% 29.76 in 10.0 mi NW 3.5 mph - N/A   Clear
2:54 PM 57.0 °F - 37.9 °F 49% 29.76 in 10.0 mi West 9.2 mph 18.4 mph N/A   Clear
3:54 PM 57.9 °F - 36.0 °F 44% 29.75 in 10.0 mi West 11.5 mph 20.7 mph N/A   Clear
4:54 PM 57.0 °F - 37.0 °F 47% 29.74 in 10.0 mi WSW 16.1 mph 20.7 mph N/A   Clear
5:54 PM 55.9 °F - 35.1 °F 45% 29.77 in 10.0 mi West 10.4 mph 16.1 mph N/A   Clear
6:54 PM 54.0 °F - 35.1 °F 49% 29.77 in 10.0 mi West 4.6 mph - N/A   Clear
7:54 PM 48.0 °F - 37.0 °F 66% 29.79 in 10.0 mi SSW 6.9 mph - N/A   Clear
8:54 PM 50.0 °F - 37.0 °F 61% 29.83 in 10.0 mi Calm Calm - N/A   Clear
9:54 PM 43.0 °F 41.3 °F 37.0 °F 80% 29.85 in 10.0 mi WSW 3.5 mph - N/A   Clear
10:54 PM 39.9 °F - 36.0 °F 86% 29.87 in 10.0 mi Calm Calm - N/A   Clear
11:54 PM 43.0 °F 40.3 °F 33.1 °F 68% 29.90 in 10.0 mi WSW 4.6 mph - N/A   Clear